Imperial, NE

12:42 AM MDT on October 23, 2017 (GMT -0600)
Imperial Municipal

Weather History for KIML - April, 2014

Change the Weather History Date:

Sunday, April 20, 2014

  Actual Average Record
Temperature  
Mean Temperature 59 °F 50 °F  
Max Temperature 77 °F 64 °F 91 °F (1902)
Min Temperature 40 °F 36 °F 18 °F (1953)
Degree Days  
Heating Degree Days 6 15  
Month to date heating degree days 338 365  
Cooling Degree Days 0 0  
Month to date cooling degree days 0 0  
Year to date cooling degree days 0 0  
Growing Degree Days 9 (Base 50)    
Moisture  
Dew Point 44 °F    
Average Humidity 59    
Maximum Humidity 86    
Minimum Humidity 31    
Precipitation  
Precipitation T in 0.08 in 2.12 in (1984)
Sea Level Pressure  
Sea Level Pressure 29.96 in    
Wind  
Wind Speed 5 mph (North)    
Max Wind Speed 18 mph    
Max Gust Speed 21 mph    
Visibility 10 miles    
Events      
T = Trace of Precipitation, MM = Missing Value Source: NWS Daily Summary

Daily Weather History Graph

Daily Weather History Graph

Search for Another Location

Airport or City:

Trip Planner

Search our weather history database for the weather conditions in past years. The results will help you decide how hot, cold, wet, or windy it might be!

Date:

Astronomy

Apr. 20, 2014 Rise Set
Actual Time 6:00 AM MDT 7:30 PM MDT
Civil Twilight 5:31 AM MDT 7:59 PM MDT
Nautical Twilight 4:57 AM MDT 8:34 PM MDT
Astronomical Twilight 4:20 AM MDT 9:10 PM MDT
Moon 12:12 AM MDT (4/20) 10:22 AM MDT (4/20)
Length of Visible Light 14h 27m
Length of Day
13h 30m
Waning Gibbous, 68% of the Moon is Illuminated
Apr 20
Waning Gibbous
Apr 22
Last Quarter
Apr 29
New
May 6
First Quarter
May 14
Full

Hourly Weather History & Observations

Time (MDT) Temp. Windchill Dew Point Humidity Pressure Visibility Wind Dir Wind Speed Gust Speed Precip Events Conditions
12:53 AM 46.9 °F - 42.1 °F 83% 29.98 in 10.0 mi NNW 4.6 mph - N/A   Clear
1:53 AM 46.9 °F - 42.1 °F 83% 29.97 in 10.0 mi NW 5.8 mph - N/A   Clear
2:53 AM 45.0 °F 42.6 °F 39.9 °F 82% 29.98 in 10.0 mi NNW 4.6 mph - N/A   Clear
3:53 AM 41.0 °F 38.0 °F 37.0 °F 86% 29.99 in 10.0 mi North 4.6 mph - N/A   Clear
4:53 AM 41.0 °F 37.1 °F 37.9 °F 89% 29.97 in 9.0 mi North 5.8 mph - N/A   Clear
5:53 AM 41.0 °F 37.1 °F 37.9 °F 89% 29.99 in 8.0 mi NNW 5.8 mph - N/A   Clear
6:53 AM 44.1 °F 40.8 °F 39.9 °F 85% 30.00 in 10.0 mi NNW 5.8 mph - N/A   Clear
7:53 AM 48.0 °F - 41.0 °F 77% 30.01 in 10.0 mi Variable 3.5 mph - N/A   Clear
8:53 AM 53.1 °F - 44.1 °F 71% 30.01 in 10.0 mi NE 3.5 mph - N/A   Clear
9:53 AM 61.0 °F - 46.9 °F 60% 30.01 in - North - - N/A   Unknown
10:53 AM 63.0 °F - 46.9 °F 56% 29.99 in 10.0 mi Variable 4.6 mph - N/A   Mostly Cloudy
11:53 AM 66.9 °F - 48.0 °F 51% 29.97 in 10.0 mi North 4.6 mph - N/A   Mostly Cloudy
12:53 PM 70.0 °F - 48.9 °F 47% 29.95 in 10.0 mi NNW 5.8 mph - N/A   Scattered Clouds
1:53 PM 71.1 °F - 48.0 °F 44% 29.94 in 10.0 mi Variable 3.5 mph - N/A   Clear
2:53 PM 72.0 °F - 46.9 °F 41% 29.91 in 10.0 mi Variable 4.6 mph - N/A   Mostly Cloudy
3:53 PM 75.0 °F - 46.0 °F 36% 29.90 in 10.0 mi Variable 3.5 mph - 0.00 in   Clear
4:53 PM 77.0 °F - 45.0 °F 32% 29.88 in 10.0 mi North 6.9 mph - N/A   Clear
5:53 PM 73.9 °F - 44.1 °F 34% 29.88 in 10.0 mi North 3.5 mph - N/A   Clear
6:53 PM 71.1 °F - 46.9 °F 42% 29.88 in 10.0 mi East 3.5 mph - N/A   Clear
7:53 PM 62.1 °F - 45.0 °F 53% 29.92 in 10.0 mi SE 3.5 mph - N/A   Clear
8:53 PM 59.0 °F - 44.1 °F 58% 29.93 in 10.0 mi Calm Calm - N/A   Clear
9:53 PM 55.9 °F - 45.0 °F 67% 29.94 in 10.0 mi West 6.9 mph - N/A   Clear
10:53 PM 57.9 °F - 45.0 °F 62% 29.95 in 10.0 mi South 3.5 mph 16.1 mph N/A   Clear
11:53 PM 54.0 °F - 44.1 °F 69% 29.98 in 10.0 mi NNW 12.7 mph - N/A   Clear